Location: Hains Lake
(37.8540°N, 99.8578°W)
Time: 12:44:27
(UTC+00:00)

Vanguard 2 Rocket - All Passes

Search period start: 18 April 2021 00:00
Search period end: 28 April 2021 00:00
Orbit: 553 x 3326 km, 32.9° (Epoch: 17 April)

Date Brightness Start Highest point End Pass type
(mag) Time Alt. Az. Time Alt. Az. Time Alt. Az.
18 Apr - 02:16:30 10° W 02:32:11 44° SW 02:41:54 10° SE visible
18 Apr - 04:40:49 10° WSW 04:44:22 12° SW 04:47:28 10° SW visible
18 Apr - 16:20:36 10° SE 16:25:01 11° SE 16:29:46 10° ESE daylight
18 Apr - 18:24:05 10° SSW 18:39:13 39° SE 18:56:48 10° E daylight
18 Apr - 20:37:08 10° WSW 20:56:15 66° SSE 21:14:35 10° E daylight
18 Apr - 22:54:09 10° W 23:14:40 75° S 23:29:56 10° ESE daylight
19 Apr - 01:13:22 10° W 01:31:31 56° SSW 01:43:01 10° SE daylight
19 Apr - 03:34:43 10° W 03:44:58 22° SW 03:52:17 10° S visible
19 Apr - 17:25:26 10° S 17:38:07 29° SE 17:53:36 10° E daylight
19 Apr - 19:36:29 10° SW 19:54:01 59° SSE 20:13:06 10° E daylight
19 Apr - 21:52:06 10° WSW 22:12:20 75° S 22:29:26 10° E daylight
20 Apr - 00:10:29 10° W 00:30:14 66° SSW 00:43:37 10° ESE daylight
20 Apr - 02:30:42 10° W 02:45:08 34° SW 02:54:41 10° SSE visible
20 Apr - 16:28:08 10° SSE 16:37:33 19° SE 16:48:56 10° E daylight
20 Apr - 18:36:31 10° SW 18:52:10 49° SSE 19:11:02 10° E daylight
20 Apr - 20:50:36 10° WSW 21:09:50 73° S 21:28:28 10° E daylight
20 Apr - 23:07:57 10° W 23:28:22 72° S 23:43:42 10° ESE daylight
21 Apr - 01:27:18 10° W 01:44:42 46° SSW 01:56:11 10° SE visible
21 Apr - 03:51:00 10° W 03:57:33 14° SW 04:02:55 10° SSW visible
21 Apr - 15:37:02 10° SE 15:37:27 10° SE 15:37:50 10° ESE daylight
21 Apr - 17:37:19 10° SSW 17:50:50 39° SE 18:08:18 10° E daylight
21 Apr - 19:49:44 10° WSW 20:07:25 67° SSE 20:26:59 10° E daylight
21 Apr - 22:05:51 10° W 22:26:04 76° S 22:43:16 10° ESE daylight
22 Apr - 00:24:19 10° W 00:43:38 58° SSW 00:57:02 10° SE daylight
22 Apr - 02:45:26 10° W 02:57:51 25° SW 03:06:46 10° S visible
22 Apr - 16:39:01 10° S 16:50:07 28° SE 17:04:41 10° E daylight
22 Apr - 18:49:29 10° SW 19:05:19 59° SSE 19:25:00 10° E daylight
22 Apr - 21:04:16 10° WSW 21:23:31 76° S 21:42:19 10° E daylight
22 Apr - 23:21:46 10° W 23:41:56 66° SSW 23:57:18 10° ESE daylight
23 Apr - 01:41:29 10° W 01:57:37 36° SW 02:08:53 10° SSE visible
23 Apr - 15:42:08 10° SSE 15:49:55 18° SE 15:59:38 10° E daylight
23 Apr - 17:49:55 10° SW 18:03:45 49° SSE 18:22:29 10° E daylight
23 Apr - 20:03:15 10° WSW 20:20:58 73° S 20:40:51 10° E daylight
23 Apr - 22:19:40 10° W 22:39:44 73° SSW 22:57:00 10° ESE daylight
24 Apr - 00:38:16 10° W 00:56:47 48° SSW 01:10:07 10° SE daylight
24 Apr - 03:01:26 10° W 03:10:23 17° SW 03:17:35 10° SSW visible
24 Apr - 16:51:02 10° SSW 17:02:48 37° SE 17:19:22 10° E daylight
24 Apr - 19:02:50 10° WSW 19:18:42 67° SSE 19:38:53 10° E daylight
24 Apr - 21:18:04 10° W 21:37:14 76° S 21:56:07 10° ESE daylight
24 Apr - 23:35:38 10° W 23:55:19 58° SSW 00:10:39 10° SE daylight
25 Apr - 01:56:12 10° W 02:10:18 27° SW 02:20:54 10° S visible
25 Apr - 15:53:03 10° S 16:02:28 26° SE 16:15:29 10° E daylight
25 Apr - 18:02:59 10° SW 18:16:55 58° SSE 18:36:26 10° E daylight
25 Apr - 20:16:59 10° WSW 20:34:40 76° S 20:54:40 10° E daylight
25 Apr - 22:33:31 10° W 22:53:18 67° SSW 23:10:32 10° ESE daylight
26 Apr - 00:52:28 10° W 01:09:41 38° SW 01:22:42 10° SSE daylight
26 Apr - 14:56:38 10° SSE 15:02:39 15° SE 15:10:08 10° E daylight
26 Apr - 17:03:45 10° SW 17:15:43 47° SSE 17:33:32 10° E daylight
26 Apr - 19:16:26 10° WSW 19:32:17 73° S 19:52:42 10° E daylight
26 Apr - 21:31:54 10° W 21:50:55 72° SSW 22:09:48 10° ESE daylight
26 Apr - 23:49:36 10° W 00:08:27 49° SSW 00:23:38 10° SE daylight
27 Apr - 02:12:04 10° W 02:22:51 18° SW 02:31:43 10° SSW visible
27 Apr - 16:05:09 10° SSW 16:15:10 35° SE 16:30:12 10° E daylight
27 Apr - 18:16:24 10° WSW 18:30:19 66° SSE 18:50:17 10° E daylight
27 Apr - 20:30:48 10° W 20:48:24 75° S 21:08:26 10° ESE daylight
27 Apr - 22:47:24 10° W 23:06:41 58° SSW 23:23:48 10° SE daylight
